Kalamata, Greece

10:32 PM EEST on September 28, 2016 (GMT +0300)
Kalamata Air Base

Weather History for LGKL - February, 2013

Change the Weather History Date:

Monday, February 4, 2013

  Actual Average Record
Temperature  
Mean Temperature 58 °F -  
Max Temperature 66 °F 57 °F 68 °F (2009)
Min Temperature 50 °F 39 °F 30 °F (2005)
Degree Days  
Heating Degree Days 7    
Growing Degree Days 8 (Base 50)    
Moisture  
Dew Point 51 °F    
Average Humidity 80    
Maximum Humidity 94    
Minimum Humidity 59    
Precipitation  
Precipitation 0.00 in - - ()
Sea Level Pressure  
Sea Level Pressure 29.94 in    
Wind  
Wind Speed 1 mph ()    
Max Wind Speed 6 mph    
Max Gust Speed -    
Visibility 4.5 miles    
Events      
Averages and records for this station are not official NWS values.
T = Trace of Precipitation, MM = Missing Value Source: Averaged Metar Reports

Daily Weather History Graph

Daily Weather History Graph

Search for Another Location

Airport or City:

Trip Planner

Search our weather history database for the weather conditions in past years. The results will help you decide how hot, cold, wet, or windy it might be!

Date:

Astronomy

Feb. 04, 2013 Rise Set
Actual Time 7:31 AM EET 6:00 PM EET
Civil Twilight 7:04 AM EET 6:27 PM EET
Nautical Twilight 6:33 AM EET 6:58 PM EET
Astronomical Twilight 6:03 AM EET 7:28 PM EET
Moon 1:45 AM EET (2/4) 12:10 PM EET (2/4)
Length of Visible Light 11h 22m
Length of Day
10h 28m
Last Quarter, 41% of the Moon is Illuminated
Feb 4
Last Quarter
Feb 10
New
Feb 17
First Quarter
Feb 25
Full
Mar 4
Last Quarter

Hourly Weather History & Observations

Time (EET) Temp. Dew Point Humidity Pressure Visibility Wind Dir Wind Speed Gust Speed Precip Events Conditions
1:50 AM 51.8 °F 50.0 °F 94% 29.95 in 4.3 mi Calm Calm - N/A   Scattered Clouds
4:50 AM 51.8 °F 50.0 °F 94% 29.92 in 4.3 mi Calm Calm - N/A   Scattered Clouds
5:50 AM 51.8 °F 50.0 °F 94% 29.95 in 4.3 mi NNW 4.6 mph - N/A   Scattered Clouds
6:20 AM 51.8 °F 50.0 °F 94% 29.95 in 5.0 mi Calm Calm - N/A   Scattered Clouds
6:50 AM 51.8 °F 50.0 °F 94% 29.95 in 5.0 mi Calm Calm - N/A   Scattered Clouds
7:20 AM 51.8 °F 50.0 °F 94% 29.95 in 2.5 mi Calm Calm - N/A   Scattered Clouds
7:50 AM 51.8 °F 50.0 °F 94% 29.95 in 2.5 mi Calm Calm - N/A   Scattered Clouds
8:20 AM 50.0 °F 48.2 °F 94% 29.95 in 2.5 mi Calm Calm - N/A   Mostly Cloudy
8:50 AM 51.8 °F 50.0 °F 94% 29.98 in 2.5 mi NNW 4.6 mph - N/A   Mostly Cloudy
9:20 AM 55.4 °F 51.8 °F 88% 29.98 in 2.5 mi Calm Calm - N/A   Mostly Cloudy
9:50 AM 57.2 °F 51.8 °F 82% 29.95 in 5.6 mi Calm Calm - N/A   Mostly Cloudy
10:20 AM 59.0 °F 51.8 °F 77% 29.95 in 5.6 mi North 4.6 mph - N/A   Partly Cloudy
10:50 AM 60.8 °F 51.8 °F 72% 29.95 in 5.6 mi North 5.8 mph - N/A   Mostly Cloudy
11:20 AM 60.8 °F 51.8 °F 72% 29.95 in 5.6 mi North 4.6 mph - N/A   Partly Cloudy
12:50 PM 64.4 °F 50.0 °F 59% 29.95 in 5.6 mi Calm Calm - N/A   Partly Cloudy
1:20 PM 66.2 °F 51.8 °F 60% 29.95 in 5.0 mi SSE 4.6 mph - N/A   Mostly Cloudy
1:50 PM 64.4 °F 53.6 °F 68% 29.92 in 5.0 mi SSW 4.6 mph - N/A   Mostly Cloudy
2:20 PM 64.4 °F 53.6 °F 68% 29.92 in 5.0 mi South 5.8 mph - N/A   Mostly Cloudy
2:50 PM 64.4 °F 53.6 °F 68% 29.92 in 5.0 mi South 5.8 mph - N/A   Partly Cloudy
3:20 PM 62.6 °F 53.6 °F 72% 29.92 in 5.0 mi SSE 5.8 mph - N/A   Partly Cloudy
3:50 PM 64.4 °F 53.6 °F 68% 29.89 in 5.0 mi Calm Calm - N/A   Partly Cloudy
4:20 PM 64.4 °F 53.6 °F 68% 29.89 in 5.0 mi Calm Calm - N/A   Partly Cloudy
4:50 PM 64.4 °F 53.6 °F 68% 29.92 in 5.0 mi Calm Calm - N/A   Mostly Cloudy
5:20 PM 62.6 °F 51.8 °F 68% 29.92 in 5.0 mi Calm Calm - N/A   Partly Cloudy
5:50 PM 59.0 °F 51.8 °F 77% 29.92 in 5.0 mi Calm Calm - N/A   Partly Cloudy
6:20 PM 57.2 °F 50.0 °F 77% 29.92 in 3.1 mi Calm Calm - N/A   Smoke
6:50 PM 59.0 °F 51.8 °F 77% 29.92 in 3.1 mi Calm Calm - N/A   Smoke
7:20 PM 57.2 °F 50.0 °F 77% 29.95 in 3.1 mi Calm Calm - N/A   Smoke
7:50 PM 53.6 °F 50.0 °F 88% 29.95 in 5.0 mi NNW 4.6 mph - N/A   Partly Cloudy
10:50 PM 53.6 °F 50.0 °F 88% 29.95 in 6.2 mi Calm Calm - N/A   Scattered Clouds